Location: ?????
(55.6500°N, 37.2500°E)
Time: 18:05:27
(UTC+00:00)

Daily predictions for brighter satellites

Satellite Brightness Start Highest point End
(mag) Time Altitude Azimuth Time Altitude Azimuth Time Altitude Azimuth
SPOT 3 Rocket 3.6 18:23:34 10° SSE 18:28:41 70° ENE 18:33:48 10° NNW
Cosmos 1933 3.3 18:25:57 10° SSW 18:29:49 87° WNW 18:33:43 10° NNE
NOSS 2-3 (C) 3.8 18:26:56 10° WSW 18:30:32 66° NNW 18:34:50 10° NE
ERS-1 Rocket 3.7 18:27:43 10° S 18:32:37 54° W 18:37:34 10° NNW
Okean-O 3.5 18:28:45 10° S 18:33:00 49° W 18:37:18 10° NNW
NOSS 3-1 (C) 3.8 18:33:44 10° S 18:38:01 31° ESE 18:43:06 10° ENE
Cosmos 1743 3.8 18:39:29 10° NNW 18:42:40 35° W 18:45:49 10° SSW
Cosmos 2333 Rocket 4.0 18:39:00 10° NNW 18:43:51 27° NNE 18:48:39 10° E
Spot 2 Rocket 3.8 18:39:09 10° S 18:44:08 66° WSW 18:49:12 10° NNW
ISS -2.8 18:44:12 10° W 18:47:15 32° SSW 18:50:18 10° SE
Lacrosse 4 Rocket 3.2 18:44:05 10° WSW 18:47:46 35° NW 18:51:31 10° NNE
ARIANE 6 FM1 Upper Stage 2.7 18:45:17 10° SSW 18:49:10 50° SE 18:53:07 10° ENE
IKONOS-2 4.4 18:45:13 10° NNE 18:49:21 78° ESE 18:53:28 10° SSW
Cosmos 1821 Rocket 4.3 18:43:42 10° N 18:49:44 55° ENE 18:55:41 10° SSE
Cosmos 1833 Rocket 2.8 18:44:32 10° SSW 18:50:04 58° ESE 18:55:37 10° NE
Cosmos 2218 Rocket 4.1 18:48:00 10° N 18:54:26 81° ENE 19:00:45 10° SSE
Cosmos 1356 Rocket 3.7 18:53:55 10° S 18:57:53 49° E 19:01:51 10° NNE
Cosmos 2219 Rocket 4.3 18:55:43 10° NNW 19:00:04 22° NNE 19:04:25 10° ENE
Cosmos 1733 3.5 18:57:11 10° NNW 19:00:10 45° W 19:03:07 10° S
Cosmos 158 Rocket 4.1 18:55:38 10° SSW 19:00:57 84° ESE 19:06:23 10° NNE
NOSS 3-1 (A) 4.1 19:03:48 10° S 19:07:46 25° ESE 19:12:20 10° ENE
USA 234 3.4 19:01:49 10° ENE 19:08:13 54° SE 19:14:37 10° SW
Cosmos 2058 Rocket 4.0 19:04:09 10° SSW 19:08:30 50° WNW 19:12:51 10° N
Helios 1A 4.3 19:06:19 10° N 19:10:07 40° WNW 19:13:53 10° SW
Cosmos 1980 Rocket 2.3 19:04:51 10° NW 19:10:28 79° WSW 19:15:43 12° SSE
Cosmos 1805 3.2 19:10:41 10° N 19:14:08 58° ENE 19:17:00 14° SSE
Cosmos 1812 Rocket 3.5 19:12:24 10° S 19:16:40 67° E 19:20:59 10° NNE
Terra 3.6 19:14:13 10° SSW 19:18:10 26° W 19:22:08 10° NW
SWARM A 4.2 19:15:04 10° S 19:18:26 87° E 19:21:51 10° N
Meteor 1-26 Rocket 4.5 19:14:05 10° SSW 19:19:59 85° WNW 19:26:04 10° NNE
Cosmos 2181 Rocket 4.1 19:14:39 10° S 19:20:53 69° E 19:27:15 10° NNE
SL-16 R/B 3.0 19:16:01 10° NNW 19:21:31 46° NE 19:26:58 10° ESE
Cosmos 2208 Rocket 4.1 19:16:39 10° S 19:21:56 60° ESE 19:27:10 10° NNE
Meteor 1-11 Rocket 4.0 19:18:11 10° N 19:23:39 59° ENE 19:28:28 13° SSE
ATLAS CENTAUR R/B 1.1 19:20:01 10° SW 19:23:46 89° NW 19:27:39 10° NE
Cosmos 1315 Rocket 2.8 19:20:21 10° S 19:24:11 62° E 19:28:02 10° NNE
SL-24 R/B 4.1 19:21:57 10° NNE 19:26:15 66° ESE 19:30:40 10° S
Cosmos 2344 4.0 19:19:10 10° WSW 19:26:25 66° NNW 19:34:10 10° ENE
Cosmos 2366 rocket 4.5 19:23:26 10° NNW 19:29:42 61° W 19:35:55 10° S
DELTA 2 DEB (DPAF) 4.1 19:26:16 10° NNE 19:30:08 48° ESE 19:33:24 13° S
Cosmos 2322 Rocket 3.4 19:25:08 10° NNW 19:30:25 38° NE 19:35:40 10° ESE
Cosmos 2237 4.5 19:25:10 10° NNW 19:30:52 66° NE 19:36:07 12° SE
BlueWalker 3 3.7 19:32:07 10° WSW 19:34:32 17° SW 19:36:16 13° S
Meteor 1-14 Rocket 4.4 19:30:29 10° NNW 19:36:04 75° W 19:41:17 12° S
Genesis I 3.0 19:34:00 10° NW 19:36:43 50° NE 19:39:01 13° ESE
Cosmos 1975 3.7 19:34:54 10° N 19:38:19 34° ENE 19:40:56 15° SE
Cosmos 1697 Rocket 4.2 19:37:29 10° NW 19:42:13 28° WSW 19:46:57 10° SSW
Ariane Rocket 4.1 19:37:37 10° SSW 19:42:18 37° W 19:47:01 10° NNW
Nadezhda 3 Rocket 4.3 19:37:18 13° SSE 19:42:38 54° E 19:48:43 10° NNE
CZ-4C R/B 3.8 19:39:43 10° NNE 19:43:10 37° E 19:45:23 18° SSE
CENTAUR R/B 3.6 19:36:47 10° NW 19:44:17 64° NNE 19:53:14 10° ESE
Cosmos 1934 Rocket 4.3 19:39:39 10° N 19:45:48 58° ENE 19:51:02 15° SSE
ATLAS 3B R/B 4.0 19:42:57 14° SSE 19:47:38 26° ESE 19:53:43 10° ENE
Cosmos 2278 4.0 19:42:09 10° NNW 19:47:47 62° NE 19:52:56 12° SE
Cosmos 1570 Rocket 4.2 19:43:15 10° SW 19:48:30 74° WNW 19:53:50 10° NNE
Cosmos 1238 Rocket 2.6 19:46:06 10° SSW 19:49:43 68° WNW 19:52:56 10° N
ARIANE 5 R/B 3.0 19:46:27 16° SE 19:49:48 55° ENE 19:54:05 10° N
Cosmos 2360 Rocket 3.2 19:44:53 10° NNW 19:50:14 42° NE 19:55:33 10° ESE
Cosmos 1842 Rocket 4.4 19:48:46 17° SSE 19:51:33 35° E 19:55:30 10° NNE
Meteor 2-6 Rocket 4.4 19:48:52 10° SSW 19:54:44 83° WNW 20:00:28 10° NNE
Cosmos 2369 4.0 19:49:34 10° NW 19:55:10 61° WSW 19:59:34 16° SSE
Cosmos 1766 3.5 19:52:22 10° N 19:55:43 45° ENE 19:57:53 19° SE
Cosmos 1470 4.1 19:54:01 10° N 19:57:05 26° ENE 19:59:30 14° ESE
Cosmos 1908 4.0 19:55:40 10° N 19:58:38 32° ENE 20:00:38 17° SE
Cosmos 1536 3.4 19:56:02 10° NNW 19:59:44 47° W 20:02:41 15° SSW
SeaSat 1 3.4 19:57:02 14° S 20:00:49 38° WSW 20:05:25 10° NW
CZ-2C R/B 4.3 19:58:43 10° NNE 20:02:53 40° E 20:05:39 19° SSE
Cosmos 2221 2.9 20:01:18 10° SSW 20:05:26 59° WNW 20:09:34 10° N
Cosmos 2082 Rocket 2.3 20:00:19 11° SSW 20:05:37 57° ESE 20:11:09 10° NE
Cosmos 405 Rocket 2.3 20:02:49 10° NNW 20:06:16 89° W 20:08:21 22° SSE
Okean 1 4.0 20:08:21 10° SSW 20:11:55 46° WNW 20:15:29 10° N
COBE Rocket 4.0 20:11:56 10° NNE 20:17:04 89° WNW 20:21:35 14° SSW
Meteor 1-10 Rocket 4.3 20:11:55 13° S 20:17:11 85° ESE 20:23:03 10° NNE
Cosmos 773 Rocket 4.2 20:13:01 10° SW 20:18:09 73° WNW 20:23:18 10° NNE
Okean 3 Rocket 3.5 20:14:28 10° NNW 20:18:54 89° E 20:21:53 20° S
Cosmos 1674 2.3 20:18:53 22° SW 20:19:58 42° WNW 20:22:06 10° N
COSMOS 2406 3.5 20:17:11 16° S 20:21:33 50° ESE 20:27:04 10° NE
Landsat 5 4.0 20:17:46 10° NNE 20:21:46 44° E 20:24:14 21° SSE
Cosmos 1766 Rocket 4.3 20:17:42 10° NNW 20:21:55 45° W 20:25:10 16° SSW
NOSS 3-2 (A) 4.4 20:16:03 10° NW 20:22:36 61° NNE 20:30:40 10° ESE
ISS -1.6 20:21:40 10° WSW 20:23:18 13° SW 20:23:18 13° SW
BREEZE-M R/B 4.3 20:15:39 10° W 20:25:03 30° SW 20:27:31 19° S
USA 59 Rocket 0.1 20:24:31 26° SSE 20:25:08 28° SE 20:27:45 10° ENE
Cosmos 220 Rocket 4.1 20:21:47 10° SW 20:25:51 67° WNW 20:29:54 10° NNE
Cosmos 2084 Rocket 3.4 20:21:52 10° SW 20:26:09 84° NW 20:30:23 10° NE
NOSS 3-1 (C) 3.4 20:23:05 10° WSW 20:28:10 75° NW 20:34:36 10° NE
ARIANE 6 FM1 Upper Stage 3.6 20:24:27 10° W 20:28:22 49° NNW 20:32:22 10° NE
Cosmos 2333 Rocket 2.4 20:23:19 10° NNW 20:29:06 74° NE 20:33:55 15° SE
Cosmos 1842 4.0 20:29:20 22° SE 20:30:52 32° E 20:34:01 10° NNE
Cosmos 1833 Rocket 4.1 20:28:56 10° WSW 20:34:14 40° NW 20:39:35 10° NNE
NOSS 2-1 (E) 3.6 20:35:16 27° SSE 20:36:01 30° SE 20:38:45 10° ENE
MetOp-A 4.3 20:32:58 19° S 20:36:38 60° WSW 20:41:46 10° NNW
Meteor 2-13 Rocket 4.4 20:35:04 17° S 20:39:56 83° E 20:46:06 10° NNE
Cosmos 1455 4.2 20:40:53 10° NE 20:41:56 11° ENE 20:42:59 10° E
Cosmos 1300 3.6 20:40:34 10° N 20:43:26 30° ENE 20:45:10 18° ESE
Cosmos 1151 Rocket 3.8 20:42:48 21° SSE 20:45:06 38° E 20:49:02 10° NNE
ALOS 2 2.6 20:42:21 22° SSE 20:45:09 88° WSW 20:49:36 10° NNW
Cosmos 2219 Rocket 2.8 20:39:43 10° NNW 20:45:16 54° NE 20:50:46 10° SE
Cosmos 2333 4.5 20:41:09 10° NNW 20:46:50 67° NE 20:51:55 13° SE
USA 234 3.3 20:45:01 10° ENE 20:51:36 88° NNW 20:58:10 10° WSW
NOSS 2-1 (D) 2.9 20:50:18 27° SSW 20:51:38 46° SE 20:54:32 10° ENE
Meteor 2-4 Rocket 3.9 20:48:50 20° S 20:52:49 67° E 20:58:37 10° NNE
Meteor 1-27 Rocket 3.7 20:48:32 16° SSW 20:53:02 81° WNW 20:58:36 10° NNE
Cosmos 1980 Rocket 4.1 20:49:58 10° WNW 20:53:36 18° W 20:57:13 10° SW
NOSS 3-1 (A) 3.2 20:52:36 10° SW 20:57:40 87° NW 21:04:04 10° NE
Sich 1 3.2 20:55:11 10° NNW 20:59:24 62° W 21:01:52 23° S
ATLAS CENTAUR R/B 3.4 20:56:58 10° W 21:00:21 29° NNW 21:03:46 10° NE
Cosmos 1371 Rocket 4.4 20:55:18 10° NNW 21:00:40 62° ENE 21:05:13 14° SE
CZ-2C R/B 4.3 20:56:29 10° ESE 21:00:45 27° NE 21:05:02 10° N
BREEZE-M DEB (TANK) 3.9 20:53:06 10° W 21:03:11 36° SW 21:05:28 22° SSE
SL-16 R/B 2.6 21:00:15 10° NW 21:05:42 49° WSW 21:09:15 21° S
Cosmos 2056 Rocket 3.8 21:01:01 10° NNW 21:06:22 68° ENE 21:10:41 15° SE
PSLV R/B 3.8 21:02:59 10° NNE 21:07:07 54° E 21:09:23 24° S
Genesis I 4.0 21:07:38 10° WNW 21:09:43 19° WSW 21:09:43 19° WSW
Cosmos 1624 Rocket 4.2 21:05:12 10° NNW 21:10:25 71° ENE 21:14:39 16° SE
NOSS 2-1 (C) 2.5 21:09:43 23° SW 21:11:31 67° SE 21:14:28 10° NE
Cosmos 1975 4.1 21:10:25 10° NNW 21:13:34 26° W 21:15:35 17° SW
Cosmos 1500 Rocket 3.9 21:09:45 10° NNW 21:14:01 55° W 21:16:34 23° SSW
Cosmos 1538 Rocket 3.9 21:10:27 19° SSW 21:14:09 79° ESE 21:19:20 10° NNE
Cosmos 2322 Rocket 2.3 21:09:12 10° NW 21:14:50 64° WSW 21:18:38 21° SSE
NOSS 3-2 (C) 4.4 21:09:27 10° NW 21:16:03 62° NNE 21:24:09 10° ESE
Exosat Rocket 3.9 21:11:19 10° NW 21:16:18 51° WSW 21:19:21 22° S
Cosmos 1459 Rocket 4.4 21:11:34 10° N 21:17:35 57° ENE 21:22:37 15° SSE
H-2A R/B 3.7 21:15:01 12° SE 21:18:15 33° ENE 21:21:44 10° N
Cosmos 1707 2.4 21:18:01 27° SSW 21:19:41 70° WNW 21:23:04 10° N
COSMOS 2428 3.7 21:14:34 10° NNW 21:20:06 46° NE 21:25:36 10° ESE
Cosmos 1633 Rocket 3.5 21:16:36 10° N 21:20:54 54° ENE 21:23:51 19° SE
Geosat FO 4.1 21:21:06 30° SSE 21:22:27 73° WSW 21:25:28 10° NW
Cosmos 1408 Rocket 4.4 21:18:49 10° NNW 21:22:53 39° W 21:25:23 20° SSW
Cosmos 44 Rocket 4.2 21:18:36 10° NW 21:23:15 49° NNE 21:27:59 10° ESE
Meteor 2-10 Rocket 4.0 21:19:50 10° NNW 21:25:33 69° ENE 21:30:04 17° SSE
ARIANE 5 R/B 4.2 21:23:51 14° SW 21:26:27 24° W 21:30:01 10° NW
Cosmos 1066 Rocket 4.3 21:23:03 21° S 21:26:54 78° ESE 21:32:43 10° NNE
Cosmos 1805 Rocket 4.3 21:25:50 10° NNW 21:30:02 42° W 21:32:35 21° SSW
Cosmos 1470 3.6 21:28:31 10° NNW 21:31:45 33° W 21:33:25 21° SW
Cosmos 2173 Rocket 4.2 21:25:53 10° N 21:32:17 74° ENE 21:37:12 18° SSE
Cosmos 2360 Rocket 2.4 21:28:57 10° NW 21:34:26 55° WSW 21:38:04 21° S
CENTAUR R/B 3.3 21:27:26 10° NW 21:35:20 66° SW 21:44:23 10° SSE
Meteor 1-18 Rocket 4.3 21:32:07 20° SSW 21:36:15 88° WNW 21:42:12 10° NNE
GP-B 3.1 21:32:16 10° N 21:36:42 81° W 21:39:19 24° S
ATLAS 3B R/B 3.0 21:30:06 11° SW 21:37:22 75° SE 21:45:14 10° NE
USA 229 DEB 3.7 21:33:24 18° SSW 21:37:56 58° SE 21:44:40 10° NE
USA 229 3.7 21:33:32 18° SSW 21:38:01 57° SE 21:44:44 10° NE
ASTEX 1 3.4 21:38:32 10° N 21:43:31 88° W 21:46:45 22° S
Spot 1 4.4 21:40:18 10° NNE 21:44:29 63° WNW 21:47:33 19° SW
GEOS 3 Rocket 3.5 21:41:34 10° SE 21:46:41 85° SW 21:51:53 10° NW
Cosmos 1758 3.7 21:43:05 10° N 21:46:53 54° ENE 21:49:25 19° SSE
Cosmos 1743 Rocket 4.5 21:44:07 10° NNW 21:48:14 38° W 21:50:45 20° SSW
Cosmos 1328 Rocket 3.8 21:46:16 23° SSE 21:48:47 57° E 21:53:03 10° NNE
Cosmos 2082 Rocket 3.4 21:44:40 10° WSW 21:49:57 41° NW 21:55:17 10° NNE
In-Cosmos 22 4.5 21:49:28 20° S 21:53:24 63° E 21:59:07 10° NNE
Cosmos 2112 Rocket 4.2 22:00:57 21° S 22:04:23 63° ESE 22:09:33 10° NNE
Cosmos 2237 Rocket 3.4 22:00:09 10° NNW 22:05:34 44° NE 22:10:58 10° ESE
COSMOS 2406 4.2 22:00:31 10° WSW 22:05:59 45° NW 22:11:29 10° NNE
NOSS 2-2 (D) 3.9 22:08:47 10° NW 22:12:15 58° NNE 22:16:45 10° ESE
Cosmos 2061 Rocket 4.4 22:06:16 10° N 22:12:42 65° ENE 22:18:49 11° SSE
Cosmos 2333 Rocket 3.4 22:08:09 10° NW 22:12:55 28° WSW 22:15:53 18° SSW
NOSS 3-2 (A) 4.0 22:06:47 10° NW 22:13:46 65° SW 22:22:14 10° SSE
USA 59 Rocket 0.4 22:11:05 10° W 22:13:59 40° NNW 22:16:51 10° NE
Cosmos 1455 1.6 22:11:44 10° NNW 22:14:31 55° W 22:15:31 33° SSW
Cosmos 1300 3.9 22:14:09 10° NW 22:16:39 22° W 22:17:48 18° WSW
Cosmos 2322 3.7 22:14:35 10° NW 22:20:18 80° WSW 22:26:00 10° SSE
SL-14 R/B 3.2 22:18:45 23° S 22:21:01 76° E 22:24:55 10° NNE
Cosmos 1953 3.6 22:18:29 10° N 22:21:52 33° ENE 22:25:15 10° SE
Cosmos 1666 Rocket 4.3 22:18:20 10° NNW 22:22:23 38° W 22:24:54 20° SSW
Cosmos 1151 Rocket 4.3 22:19:28 14° SW 22:22:36 31° WNW 22:26:23 10° N
NOSS 2-2 (C) 3.4 22:19:36 10° NW 22:23:15 89° SSW 22:28:10 10° SE
Cosmos 1110 Rocket 4.0 22:18:08 10° NNW 22:23:29 85° WSW 22:28:27 12° SSE
NOSS 2-1 (E) 4.0 22:22:09 10° W 22:25:06 39° NNW 22:28:01 10° NE
Cosmos 1452 Rocket 3.5 22:22:25 10° NNW 22:27:42 88° ENE 22:32:57 10° SSE
Cosmos 1437 Rocket 4.2 22:25:52 13° SE 22:28:19 26° E 22:31:17 10° NE
Meteor 1-13 Rocket 4.5 22:24:25 18° S 22:28:52 72° E 22:34:50 10° NNE
Cosmos 2219 Rocket 2.8 22:23:55 10° NW 22:29:06 39° WSW 22:32:40 19° S
Cosmos 494 Rocket 4.1 22:27:54 20° SSW 22:31:28 69° ESE 22:36:37 10° NNE
Cosmos 923 Rocket 4.4 22:27:14 15° SW 22:31:36 63° WNW 22:36:55 10° NNE
USA 234 3.4 22:28:05 10° E 22:34:38 82° N 22:41:12 10° W
ATLAS CENTAUR R/B 4.0 22:34:25 10° NW 22:37:28 22° N 22:40:32 10° NE
Cosmos 1727 Rocket 4.5 22:34:09 16° SW 22:39:07 52° WNW 22:45:11 10° N
Landsat 4 4.3 22:38:50 22° SW 22:39:50 27° W 22:42:26 10° NW
CZ-2C R/B 2.6 22:36:30 16° S 22:40:38 69° WSW 22:45:48 10° NNW
NOSS 2-1 (D) 4.5 22:38:01 10° W 22:40:46 30° NNW 22:43:31 10° NE
SL-16 R/B 4.1 22:35:54 10° NNW 22:41:00 33° NE 22:46:05 10° E
GRACE-FO 1 4.5 22:38:57 22° S 22:41:07 77° W 22:44:41 10° N
GRACE-FO 2 4.5 22:39:22 22° S 22:41:32 76° W 22:45:06 10° N
SL-24 R/B - RUBIN 2 4.4 22:37:03 10° SW 22:43:18 78° NW 22:48:55 10° NE
Cosmos 2016 Rocket 4.1 22:37:26 10° NNW 22:43:31 64° W 22:48:30 16° S
Cosmos 1048 Rocket 4.3 22:39:54 18° S 22:43:36 55° ESE 22:48:36 10° NE
Cosmos 1680 Rocket 3.8 22:39:24 16° SW 22:43:38 65° WNW 22:48:51 10° NNE
IRIDIUM 103 4.4 22:40:55 17° S 22:45:04 82° E 22:50:19 10° N
Cosmos 1833 4.3 22:42:21 15° SW 22:47:10 78° NW 22:53:01 10° NNE
Cosmos 2297 Rocket 3.8 22:44:25 10° SSE 22:48:57 25° ESE 22:53:31 10° NE
Cosmos 1470 Rocket 4.3 22:46:26 10° NNW 22:50:24 36° W 22:53:03 18° SSW
H-2A R/B 3.2 22:50:24 19° SSW 22:52:36 33° W 22:56:10 10° NNW
Cosmos 1331 Rocket 4.1 22:49:31 10° NNW 22:54:37 56° WSW 22:59:06 13° S
Cosmos 2322 Rocket 4.1 22:54:57 10° WNW 22:57:46 14° W 23:00:24 10° SW
Cosmos 1302 Rocket 4.1 22:53:11 10° NNW 22:58:26 84° ENE 23:03:39 10° SSE
Aureole 3 Rocket 4.1 22:54:31 10° N 22:59:25 45° ENE 23:03:05 10° SE
Cosmos 1933 Rocket 3.8 22:57:44 10° NNW 23:02:05 54° W 23:05:27 16° S
IRIDIUM 106 4.4 22:59:11 16° SSW 23:03:23 75° W 23:08:38 10° N
COSMOS 2428 3.0 22:58:57 10° NW 23:04:27 50° WSW 23:09:56 10° S
Cosmos 44 Rocket 3.5 23:00:07 10° NW 23:04:43 48° SW 23:09:25 10° SSE
NOSS 3-2 (C) 4.0 23:00:15 10° NW 23:07:15 64° SW 23:15:42 10° SSE
SL-16 R/B 4.2 23:03:42 10° ESE 23:09:09 35° NE 23:14:40 10° N
Cosmos 2292 Rocket 4.3 23:06:33 11° S 23:11:53 59° E 23:16:11 10° NNE
Cosmos 1980 3.7 23:07:04 10° NW 23:12:47 81° WSW 23:18:26 10° SSE
Cosmos 2227 Rocket 4.2 23:10:25 10° SE 23:14:23 20° E 23:18:22 10° NE
Cosmos 1869 Rocket 3.7 23:10:14 10° NNW 23:14:39 60° W 23:18:29 13° S
IDEFIX/ARIANE 42P 3.0 23:09:33 10° NNE 23:14:46 60° ESE 23:19:43 11° S
USA 238 DEB 4.0 23:08:39 10° NW 23:15:49 88° NE 23:23:43 10° SE
USA 238 4.0 23:08:45 10° NW 23:15:56 87° NE 23:23:50 10° SE
Cosmos 2360 Rocket 4.2 23:15:20 10° WNW 23:17:12 12° W 23:19:04 10° WSW
Cosmos 1515 Rocket 4.1 23:14:53 15° SW 23:18:15 48° WNW 23:22:32 10° N
NOSS 0 Rocket 4.1 23:13:31 10° NW 23:19:35 53° WSW 23:25:35 10° S
Resurs 1-4 Rocket 3.3 23:15:36 10° NNE 23:20:26 36° E 23:25:14 10° SSE
Meteor 1-12 Rocket 4.4 23:15:01 10° NNW 23:20:34 57° W 23:25:58 11° S
CENTAUR R/B 4.3 23:18:47 10° WNW 23:25:06 24° WSW 23:31:24 12° SSW
CZ-2C R/B 3.6 23:22:00 10° NNE 23:27:43 63° WNW 23:32:58 12° SW
Okean 2 3.7 23:24:22 11° S 23:28:07 58° E 23:32:01 10° NNE
ATLAS 3B R/B 3.7 23:21:04 10° W 23:28:38 57° NNW 23:36:26 10° ENE
USA 229 DEB 4.2 23:22:37 10° WSW 23:28:56 60° NNW 23:36:04 10° NE
USA 229 4.2 23:22:43 10° WSW 23:29:01 61° NNW 23:36:09 10° NE
H-2A R/B 2.3 23:25:12 10° NNE 23:29:20 60° ESE 23:33:14 11° S
Meteor 1-21 4.2 23:24:56 13° SSW 23:30:02 84° WNW 23:35:43 10° NNE
NOSS 2-2 (E) 3.7 23:29:58 10° WNW 23:33:36 50° SW 23:38:29 10° SSE
NPP 3.8 23:31:52 10° NNE 23:37:18 76° ESE 23:42:42 10° SSW
Cosmos 1733 Rocket 3.1 23:33:25 10° NNW 23:37:53 83° W 23:42:18 10° S
Cosmos 1992 Rocket 4.0 23:34:17 10° NNW 23:39:31 85° WSW 23:44:43 10° SSE
Cosmos 614 Rocket 4.4 23:34:34 11° S 23:39:34 59° ESE 23:44:41 10° NNE
SAR-Lupe-3 4.0 23:38:11 10° SSE 23:41:08 86° WSW 23:44:06 10° NNW
COSMOS 2455 2.9 23:35:35 10° NW 23:41:39 88° NE 23:47:42 10° SE
Lacrosse 4 Rocket 3.3 23:41:33 10° NNW 23:45:19 34° NE 23:49:09 10° ESE
ADEOS II 3.3 23:40:38 10° NNE 23:45:31 38° E 23:50:22 10° SSE
GENESIS II 3.4 23:42:34 10° NW 23:45:31 63° SW 23:48:28 10° SE
Cosmos 1862 Rocket 4.0 23:41:47 10° S 23:46:09 61° E 23:50:33 10° NNE
Cosmos 2228 Rocket 3.6 23:43:09 10° S 23:47:38 61° E 23:52:08 10° NNE
ARIANE 6 FM1 Upper Stage 3.6 23:43:58 10° NW 23:47:59 51° NNE 23:52:04 10° E
Cosmos 1703 3.5 23:44:55 10° S 23:48:18 57° E 23:51:44 10° NNE
Cosmos 2237 Rocket 2.4 23:44:18 10° NW 23:49:46 51° WSW 23:55:13 10° S
ALOS 3.6 23:45:42 10° NNE 23:49:55 35° E 23:54:07 10° SSE
USA 281 3.7 23:46:23 10° NE 23:52:51 55° ESE 23:59:16 10° S
CZ-2D R/B 2.7 23:48:16 10° NNE 23:53:41 58° ESE 23:59:04 10° S
